| time (UTC) | temp C | wind direction | speed KPH | gust KPH | rain 1hr cm | rain 24hr cm | rain mn cm | humidity % | barometer mb |
| 20260510073109 | 11 | 0 | 0.0 | 9.7 | 0.00 | 0.25 | 0.00 | 89 | 1008.1 |
| 20260510071601 | 11 | 0 | 0.0 | 14.5 | 0.00 | 0.25 | 0.00 | 89 | 1007.9 |
| 20260510070051 | 11 | 0 | 0.0 | 20.9 | 0.00 | 0.25 | 0.00 | 89 | 1008.4 |
| 20260510064556 | 11 | 263 | 0.0 | 16.1 | 0.00 | 0.25 | 0.00 | 89 | 1008.5 |
| 20260510063059 | 11 | 268 | 1.6 | 20.9 | 0.00 | 0.25 | 0.00 | 89 | 1008.5 |
| 20260510061551 | 11 | 212 | 4.8 | 14.5 | 0.00 | 0.25 | 0.00 | 88 | 1008.7 |
| 20260510060055 | 11 | 0 | 0.0 | 9.7 | 0.00 | 0.25 | 0.00 | 88 | 1008.5 |
| 20260510054554 | 11 | 0 | 0.0 | 6.4 | 0.00 | 0.25 | 0.00 | 89 | 1008.1 |
| 20260510053054 | 11 | 0 | 0.0 | 0.0 | 0.00 | 0.25 | 0.00 | 89 | 1008.2 |
| 20260510051556 | 11 | 0 | 0.0 | 1.6 | 0.00 | 0.25 | 0.00 | 87 | 1008.1 |
| 20260510050050 | 11 | 0 | 0.0 | 17.7 | 0.00 | 0.25 | 0.00 | 87 | 1008.3 |
| 20260510044552 | 12 | 0 | 0.0 | 22.5 | 0.00 | 0.25 | 0.00 | 87 | 1008.5 |
| 20260510043105 | 11 | 0 | 0.0 | 1.6 | 0.00 | 0.25 | 0.00 | 88 | 1008.5 |
| 20260510041555 | 11 | 257 | 0.0 | 22.5 | 0.00 | 0.25 | 0.00 | 88 | 1008.2 |
| 20260510040055 | 11 | 0 | 0.0 | 17.7 | 0.00 | 0.25 | 0.00 | 89 | 1008.2 |
| 20260510034550 | 11 | 0 | 0.0 | 9.7 | 0.00 | 0.25 | 0.25 | 93 | 1008.2 |
| 20260510033054 | 10 | 0 | 0.0 | 9.7 | 0.00 | 0.25 | 0.25 | 95 | 1008.0 |
| 20260510031555 | 9 | 0 | 0.0 | 4.8 | 0.00 | 0.25 | 0.25 | 97 | 1008.5 |
| 20260510030049 | 8 | 0 | 0.0 | 0.0 | 0.00 | 0.25 | 0.25 | 96 | 1008.4 |
| 20260510024549 | 8 | 0 | 0.0 | 0.0 | 0.00 | 0.25 | 0.25 | 96 | 1008.4 |
| 20260510023049 | 8 | 0 | 0.0 | 0.0 | 0.00 | 0.25 | 0.25 | 96 | 1008.5 |
| 20260510021550 | 8 | 0 | 0.0 | 0.0 | 0.00 | 0.25 | 0.25 | 96 | 1008.5 |
| 20260510020052 | 8 | 0 | 0.0 | 0.0 | 0.00 | 0.25 | 0.25 | 95 | 1008.7 |
| 20260510014605 | 8 | 0 | 0.0 | 0.0 | 0.00 | 0.25 | 0.25 | 95 | 1008.7 |
| 20260510013053 | 8 | 0 | 0.0 | 0.0 | 0.00 | 0.25 | 0.25 | 95 | 1008.8 |
| 20260510011555 | 8 | 0 | 0.0 | 0.0 | 0.00 | 0.25 | 0.25 | 95 | 1008.8 |
| 20260510010052 | 8 | 0 | 0.0 | 0.0 | 0.00 | 0.25 | 0.25 | 95 | 1008.7 |
| 20260510004553 | 8 | 0 | 0.0 | 0.0 | 0.00 | 0.25 | 0.25 | 95 | 1008.9 |
| 20260510003049 | 8 | 0 | 0.0 | 0.0 | 0.00 | 0.25 | 0.25 | 95 | 1008.8 |
| 20260510001555 | 8 | 0 | 0.0 | 0.0 | 0.00 | 0.25 | 0.25 | 95 | 1008.7 |
| 20260510000055 | 8 | 0 | 0.0 | 0.0 | 0.00 | 0.25 | 0.25 | 95 | 1008.5 |
| 20260509234551 | 8 | 0 | 0.0 | 0.0 | 0.00 | 0.25 | 0.25 | 95 | 1008.4 |
| 20260509233053 | 8 | 0 | 0.0 | 0.0 | 0.00 | 0.25 | 0.25 | 95 | 1008.4 |
| 20260509231550 | 8 | 0 | 0.0 | 0.0 | 0.00 | 0.25 | 0.25 | 95 | 1008.2 |
| 20260509230053 | 8 | 0 | 0.0 | 0.0 | 0.00 | 0.25 | 0.25 | 95 | 1008.2 |
| 20260509224556 | 8 | 0 | 0.0 | 0.0 | 0.00 | 0.25 | 0.25 | 95 | 1008.3 |
| 20260509223059 | 8 | 0 | 0.0 | 0.0 | 0.00 | 0.25 | 0.25 | 95 | 1008.4 |
| 20260509221603 | 8 | 0 | 0.0 | 0.0 | 0.00 | 0.25 | 0.25 | 95 | 1008.5 |
| 20260509220052 | 8 | 0 | 0.0 | 0.0 | 0.00 | 0.25 | 0.25 | 94 | 1008.6 |
| 20260509214558 | 8 | 0 | 0.0 | 0.0 | 0.00 | 0.25 | 0.25 | 95 | 1008.7 |
| 20260509213054 | 8 | 0 | 0.0 | 0.0 | 0.00 | 0.25 | 0.25 | 95 | 1009.0 |
| 20260509211558 | 7 | 0 | 0.0 | 0.0 | 0.03 | 0.25 | 0.25 | 94 | 1009.0 |
| 20260509210107 | 7 | 0 | 0.0 | 0.0 | 0.03 | 0.25 | 0.25 | 94 | 1009.1 |
| 20260509204557 | 7 | 0 | 0.0 | 0.0 | 0.03 | 0.25 | 0.25 | 94 | 1009.1 |
| 20260509203053 | 7 | 0 | 0.0 | 0.0 | 0.03 | 0.25 | 0.25 | 94 | 1009.4 |
| 20260509201558 | 7 | 0 | 0.0 | 0.0 | 0.00 | 0.23 | 0.23 | 93 | 1009.4 |
| 20260509194548 | 7 | 0 | 0.0 | 0.0 | 0.00 | 0.23 | 0.23 | 93 | 1009.7 |
| 20260509193051 | 7 | 0 | 0.0 | 0.0 | 0.00 | 0.23 | 0.23 | 93 | 1009.8 |
| 20260509191601 | 7 | 0 | 0.0 | 0.0 | 0.00 | 0.23 | 0.23 | 93 | 1009.9 |
| 20260509190107 | 7 | 0 | 0.0 | 0.0 | 0.00 | 0.23 | 0.23 | 93 | 1010.0 |
| 20260509184556 | 7 | 0 | 0.0 | 0.0 | 0.00 | 0.23 | 0.23 | 93 | 1010.1 |
| 20260509183055 | 7 | 0 | 0.0 | 0.0 | 0.00 | 0.23 | 0.23 | 93 | 1010.0 |
| 20260509181551 | 7 | 0 | 0.0 | 0.0 | 0.03 | 0.23 | 0.23 | 93 | 1010.0 |
| 20260509180059 | 7 | 0 | 0.0 | 0.0 | 0.03 | 0.23 | 0.23 | 93 | 1010.3 |
| 20260509174553 | 7 | 0 | 0.0 | 0.0 | 0.05 | 0.23 | 0.23 | 93 | 1010.5 |
| 20260509173050 | 7 | 0 | 0.0 | 0.0 | 0.10 | 0.23 | 0.23 | 92 | 1010.5 |
| 20260509171556 | 7 | 0 | 0.0 | 0.0 | 0.13 | 0.20 | 0.20 | 92 | 1010.8 |
| 20260509164558 | 7 | 0 | 0.0 | 0.0 | 0.15 | 0.18 | 0.18 | 91 | 1011.2 |
| 20260509163053 | 7 | 0 | 0.0 | 0.0 | 0.13 | 0.13 | 0.13 | 90 | 1011.3 |
| 20260509161559 | 7 | 0 | 0.0 | 0.0 | 0.08 | 0.08 | 0.08 | 88 | 1011.6 |
| 20260509160054 | 7 | 0 | 0.0 | 0.0 | 0.05 | 0.05 | 0.05 | 86 | 1011.5 |
| 20260509154600 | 7 | 0 | 0.0 | 0.0 | 0.03 | 0.03 | 0.03 | 84 | 1011.6 |
| 20260509153100 | 8 | 0 | 0.0 | 0.0 | 0.00 | 0.00 | 0.00 | 81 | 1011.7 |
| 20260509151600 | 8 | 0 | 0.0 | 0.0 | 0.00 | 0.00 | 0.00 | 77 | 1011.8 |
| 20260509150054 | 8 | 0 | 0.0 | 0.0 | 0.00 | 0.00 | 0.00 | 71 | 1011.8 |
| 20260509144557 | 8 | 0 | 0.0 | 0.0 | 0.00 | 0.00 | 0.00 | 70 | 1011.8 |
| 20260509143055 | 8 | 0 | 0.0 | 0.0 | 0.00 | 0.00 | 0.00 | 70 | 1011.8 |
| 20260509141552 | 8 | 0 | 0.0 | 0.0 | 0.00 | 0.00 | 0.00 | 72 | 1011.8 |
| 20260509140103 | 8 | 0 | 0.0 | 0.0 | 0.00 | 0.00 | 0.00 | 71 | 1011.8 |
| 20260509134625 | 8 | 0 | 0.0 | 0.0 | 0.00 | 0.00 | 0.00 | 70 | 1011.6 |
| 20260509133056 | 8 | 0 | 0.0 | 0.0 | 0.00 | 0.00 | 0.00 | 70 | 1011.6 |
| 20260509131556 | 8 | 0 | 0.0 | 0.0 | 0.00 | 0.00 | 0.00 | 70 | 1011.8 |
| 20260509130050 | 8 | 0 | 0.0 | 0.0 | 0.00 | 0.00 | 0.00 | 67 | 1011.7 |
| 20260509124551 | 9 | 0 | 0.0 | 0.0 | 0.00 | 0.00 | 0.00 | 66 | 1011.7 |
| 20260509123054 | 8 | 0 | 0.0 | 1.6 | 0.00 | 0.00 | 0.00 | 71 | 1011.9 |
| 20260509121555 | 8 | 0 | 0.0 | 0.0 | 0.00 | 0.00 | 0.00 | 71 | 1011.8 |
| 20260509120052 | 7 | 0 | 0.0 | 0.0 | 0.00 | 0.00 | 0.00 | 75 | 1012.0 |
| 20260509114551 | 7 | 0 | 0.0 | 1.6 | 0.00 | 0.00 | 0.00 | 74 | 1012.3 |
| 20260509113057 | 6 | 0 | 0.0 | 0.0 | 0.00 | 0.00 | 0.00 | 75 | 1012.2 |
| 20260509111549 | 6 | 0 | 0.0 | 0.0 | 0.00 | 0.00 | 0.00 | 77 | 1012.2 |
| 20260509110057 | 6 | 0 | 0.0 | 0.0 | 0.00 | 0.00 | 0.00 | 78 | 1012.4 |
| 20260509104557 | 6 | 0 | 0.0 | 1.6 | 0.00 | 0.00 | 0.00 | 76 | 1012.3 |
| 20260509103054 | 5 | 0 | 0.0 | 1.6 | 0.00 | 0.00 | 0.00 | 76 | 1012.2 |
| 20260509101604 | 5 | 0 | 0.0 | 4.8 | 0.00 | 0.00 | 0.00 | 74 | 1012.1 |
| 20260509100049 | 5 | 238 | 0.0 | 9.7 | 0.00 | 0.00 | 0.00 | 72 | 1012.0 |
| 20260509094557 | 5 | 0 | 0.0 | 6.4 | 0.00 | 0.00 | 0.00 | 73 | 1012.0 |
| 20260509093057 | 5 | 0 | 0.0 | 0.0 | 0.00 | 0.00 | 0.00 | 73 | 1012.0 |
| 20260509091555 | 3 | 0 | 0.0 | 0.0 | 0.00 | 0.00 | 0.00 | 79 | 1011.8 |
| 20260509090055 | 2 | 0 | 0.0 | 0.0 | 0.00 | 0.00 | 0.00 | 79 | 1011.7 |
| 20260509084551 | 2 | 0 | 0.0 | 0.0 | 0.00 | 0.00 | 0.00 | 83 | 1011.7 |
| 20260509083054 | 3 | 0 | 0.0 | 0.0 | 0.00 | 0.00 | 0.00 | 78 | 1011.7 |
| 20260509081551 | 3 | 0 | 0.0 | 0.0 | 0.00 | 0.00 | 0.00 | 82 | 1011.6 |
| 20260509080052 | 3 | 0 | 0.0 | 0.0 | 0.00 | 0.00 | 0.00 | 85 | 1011.4 |
| 20260509074603 | 2 | 0 | 0.0 | 0.0 | 0.00 | 0.00 | 0.00 | 80 | 1011.4 |